When you browse on this site, cookies collect data to enhance your experience and personalize the content and advertising you see.
Visit our Privacy Policy to learn more. By continuing to use the site, you agree to this use of cookies and data.
  • In Lithuania
  • List of Countries
  • For 7 days
  • Water Temperature
  • Weather Map
  • Weather Widgets
  • user-avatar
    Login

    Hourly Weather San Luis

    Today, 29 March, Sunday

    Time Temperature Precipitation Wind Pressure Humidity
    00:00 +19°C° 0 mm 2 mps 697 mmHg 74%
    01:00 +18°C° 0 mm 2 mps 697 mmHg 78%
    02:00 +18°C° 0 mm 2 mps 697 mmHg 78%
    03:00 +19°C° 0 mm 1 mps 697 mmHg 78%
    04:00 +18°C° 0 mm 1 mps 697 mmHg 79%
    05:00 +18°C° 0 mm 1 mps 698 mmHg 80%
    06:00 +19°C° 0 mm 1 mps 698 mmHg 76%
    07:00 +20°C° 0 mm 2 mps 699 mmHg 72%
    08:00 +21°C° 0 mm 2 mps 700 mmHg 68%
    09:00 +23°C° 0 mm 1 mps 700 mmHg 62%
    10:00 +25°C° 0 mm 1 mps 701 mmHg 56%
    11:00 +26°C° 0 mm 1 mps 701 mmHg 50%
    12:00 +27°C° 0 mm 1 mps 701 mmHg 45%
    13:00 +28°C° 0 mm 1 mps 700 mmHg 41%
    14:00 +29°C° 0 mm 2 mps 700 mmHg 36%
    15:00 +29°C° 0 mm 2 mps 699 mmHg 36%
    16:00 +29°C° 0 mm 2 mps 699 mmHg 35%
    17:00 +29°C° 0 mm 3 mps 699 mmHg 35%
    18:00 +27°C° 0 mm 3 mps 699 mmHg 41%
    19:00 +26°C° 0 mm 4 mps 699 mmHg 46%
    20:00 +23°C° 0 mm 4 mps 699 mmHg 52%
    21:00 +22°C° 0 mm 4 mps 699 mmHg 55%
    22:00 +22°C° 0 mm 3 mps 700 mmHg 58%
    23:00 +21°C° 0 mm 3 mps 700 mmHg 60%

    Tomorrow, 30 March, Monday

    Time Temperature Precipitation Wind Pressure Humidity
    00:00 +21°C° 0 mm 3 mps 700 mmHg 63%
    01:00 +21°C° 0 mm 2 mps 699 mmHg 65%
    02:00 +20°C° 0 mm 2 mps 699 mmHg 67%
    03:00 +20°C° 0 mm 2 mps 699 mmHg 69%
    04:00 +21°C° 0 mm 2 mps 699 mmHg 70%
    05:00 +21°C° 0 mm 2 mps 699 mmHg 72%
    06:00 +21°C° 0 mm 3 mps 699 mmHg 70%
    07:00 +22°C° 0 mm 3 mps 700 mmHg 68%
    08:00 +24°C° 0 mm 3 mps 700 mmHg 67%
    09:00 +25°C° 0 mm 3 mps 700 mmHg 61%
    10:00 +27°C° 0 mm 4 mps 700 mmHg 56%
    11:00 +28°C° 0 mm 4 mps 700 mmHg 50%
    12:00 +29°C° 0.1 mm 3 mps 700 mmHg 48%
    13:00 +29°C° 0.1 mm 3 mps 700 mmHg 47%
    14:00 +29°C° 0.1 mm 2 mps 699 mmHg 45%
    15:00 +29°C° 0 mm 2 mps 699 mmHg 48%
    16:00 +28°C° 0 mm 2 mps 699 mmHg 50%
    17:00 +27°C° 0 mm 2 mps 699 mmHg 53%
    18:00 +26°C° 0.1 mm 2 mps 699 mmHg 59%
    19:00 +25°C° 0.1 mm 2 mps 699 mmHg 65%
    20:00 +24°C° 0.1 mm 1 mps 699 mmHg 71%
    21:00 +23°C° 0.1 mm 2 mps 699 mmHg 73%
    22:00 +23°C° 0.1 mm 2 mps 699 mmHg 76%
    23:00 +21°C° 0.1 mm 2 mps 700 mmHg 78%

    Day after tomorrow, 31 March, Tuesday

    Time Temperature Precipitation Wind Pressure Humidity
    00:00 +22°C° 0.7 mm 1 mps 699 mmHg 81%
    01:00 +21°C° 0.7 mm 1 mps 699 mmHg 83%
    02:00 +21°C° 0.7 mm 1 mps 699 mmHg 85%
    03:00 +21°C° 0.4 mm 1 mps 698 mmHg 86%
    04:00 +21°C° 0.4 mm 1 mps 698 mmHg 87%
    05:00 +21°C° 0.4 mm 1 mps 698 mmHg 87%
    06:00 +21°C° 0.1 mm 1 mps 698 mmHg 84%
    07:00 +21°C° 0.1 mm 2 mps 698 mmHg 80%
    08:00 +23°C° 0.1 mm 2 mps 699 mmHg 77%
    09:00 +25°C° 0.4 mm 3 mps 699 mmHg 71%
    10:00 +26°C° 0.4 mm 5 mps 699 mmHg 66%
    11:00 +28°C° 0.4 mm 6 mps 699 mmHg 60%
    12:00 +28°C° 0.3 mm 7 mps 698 mmHg 58%
    13:00 +28°C° 0.3 mm 8 mps 698 mmHg 56%
    14:00 +29°C° 0.3 mm 8 mps 697 mmHg 55%
    15:00 +28°C° 0.1 mm 7 mps 697 mmHg 56%
    16:00 +28°C° 0.1 mm 6 mps 696 mmHg 57%
    17:00 +27°C° 0.1 mm 5 mps 696 mmHg 59%
    18:00 +26°C° 0 mm 5 mps 696 mmHg 65%
    19:00 +25°C° 0 mm 4 mps 696 mmHg 70%
    20:00 +23°C° 0 mm 4 mps 696 mmHg 76%
    21:00 +22°C° 0 mm 3 mps 696 mmHg 77%
    22:00 +22°C° 0 mm 3 mps 696 mmHg 78%
    23:00 +21°C° 0 mm 3 mps 696 mmHg 79%

    1 April, Wednesday

    Time Temperature Precipitation Wind Pressure Humidity
    00:00 +21°C° 0.1 mm 3 mps 696 mmHg 80%
    01:00 +21°C° 0.1 mm 2 mps 696 mmHg 80%
    02:00 +21°C° 0.1 mm 2 mps 696 mmHg 81%
    03:00 +21°C° 0.3 mm 2 mps 696 mmHg 83%
    04:00 +20°C° 0.3 mm 2 mps 696 mmHg 85%
    05:00 +20°C° 0.3 mm 2 mps 696 mmHg 87%
    06:00 +20°C° 0.6 mm 2 mps 696 mmHg 89%
    07:00 +20°C° 0.6 mm 2 mps 697 mmHg 90%
    08:00 +20°C° 0.6 mm 2 mps 697 mmHg 92%
    09:00 +20°C° 1.3 mm 3 mps 698 mmHg 93%
    10:00 +20°C° 1.3 mm 3 mps 698 mmHg 93%
    11:00 +20°C° 1.3 mm 3 mps 698 mmHg 94%
    12:00 +20°C° 1.2 mm 5 mps 699 mmHg 93%
    13:00 +19°C° 1.2 mm 6 mps 699 mmHg 91%
    14:00 +18°C° 1.2 mm 7 mps 699 mmHg 90%
    15:00 +18°C° 0.2 mm 7 mps 699 mmHg 88%
    16:00 +18°C° 0.2 mm 7 mps 700 mmHg 86%
    17:00 +18°C° 0.2 mm 7 mps 700 mmHg 84%
    18:00 +18°C° 0 mm 7 mps 701 mmHg 83%
    19:00 +17°C° 0 mm 6 mps 701 mmHg 83%
    20:00 +17°C° 0 mm 6 mps 702 mmHg 83%
    21:00 +16°C° 0 mm 5 mps 703 mmHg 84%
    22:00 +17°C° 0 mm 4 mps 703 mmHg 84%
    23:00 +15°C° 0 mm 4 mps 704 mmHg 85%

    2 April, Thursday

    Time Temperature Precipitation Wind Pressure Humidity
    00:00 +14°C° 0 mm 4 mps 704 mmHg 84%
    01:00 +14°C° 0 mm 4 mps 704 mmHg 82%
    02:00 +14°C° 0 mm 4 mps 704 mmHg 81%
    03:00 +13°C° 0 mm 4 mps 704 mmHg 80%
    04:00 +13°C° 0 mm 3 mps 704 mmHg 79%
    05:00 +13°C° 0 mm 3 mps 704 mmHg 78%
    06:00 +14°C° 0 mm 3 mps 704 mmHg 73%
    07:00 +14°C° 0 mm 3 mps 705 mmHg 69%
    08:00 +16°C° 0 mm 3 mps 705 mmHg 64%
    09:00 +18°C° 0 mm 4 mps 706 mmHg 55%
    10:00 +19°C° 0 mm 4 mps 706 mmHg 45%
    11:00 +21°C° 0 mm 5 mps 706 mmHg 36%
    12:00 +22°C° 0 mm 5 mps 706 mmHg 33%
    13:00 +23°C° 0 mm 5 mps 705 mmHg 30%
    14:00 +23°C° 0 mm 5 mps 705 mmHg 27%
    15:00 +23°C° 0 mm 5 mps 704 mmHg 28%
    16:00 +23°C° 0 mm 5 mps 704 mmHg 28%
    17:00 +22°C° 0 mm 5 mps 703 mmHg 29%
    18:00 +20°C° 0 mm 5 mps 703 mmHg 33%
    19:00 +17°C° 0 mm 5 mps 703 mmHg 37%
    20:00 +15°C° 0 mm 5 mps 703 mmHg 42%
    21:00 +15°C° 0 mm 4 mps 702 mmHg 43%
    22:00 +14°C° 0 mm 4 mps 702 mmHg 45%
    23:00 +14°C° 0 mm 3 mps 702 mmHg 47%

    3 April, Friday

    Time Temperature Precipitation Wind Pressure Humidity
    00:00 +14°C° 0 mm 3 mps 702 mmHg 47%
    01:00 +14°C° 0 mm 3 mps 701 mmHg 48%
    02:00 +14°C° 0 mm 2 mps 701 mmHg 49%
    03:00 +15°C° 0 mm 2 mps 701 mmHg 48%
    04:00 +14°C° 0 mm 3 mps 700 mmHg 47%
    05:00 +14°C° 0 mm 3 mps 700 mmHg 46%
    06:00 +16°C° 0 mm 3 mps 700 mmHg 45%
    07:00 +17°C° 0 mm 3 mps 700 mmHg 45%
    08:00 +18°C° 0 mm 4 mps 701 mmHg 44%
    09:00 +20°C° 0 mm 5 mps 701 mmHg 41%
    10:00 +22°C° 0 mm 5 mps 700 mmHg 38%
    11:00 +24°C° 0 mm 6 mps 700 mmHg 35%
    12:00 +26°C° 0 mm 5 mps 700 mmHg 35%
    13:00 +26°C° 0 mm 5 mps 699 mmHg 35%
    14:00 +27°C° 0 mm 5 mps 698 mmHg 35%
    15:00 +27°C° 0 mm 5 mps 698 mmHg 36%
    16:00 +26°C° 0 mm 5 mps 697 mmHg 37%
    17:00 +26°C° 0 mm 5 mps 696 mmHg 38%
    18:00 +23°C° 0 mm 4 mps 695 mmHg 43%
    19:00 +21°C° 0 mm 4 mps 695 mmHg 48%
    20:00 +19°C° 0 mm 3 mps 695 mmHg 53%
    21:00 +19°C° 0 mm 4 mps 695 mmHg 53%
    22:00 +18°C° 0 mm 4 mps 695 mmHg 52%
    23:00 +17°C° 0 mm 5 mps 695 mmHg 52%
    Show more